EW5212 Weather Reports


time (UTC)temp
F
wind
direction
speed
knots
gust
knots
rain 1hr
in
rain 24hr
in
rain mn
in
humidity
%
barometer
mb
20260902234516 82 0.0 0.0 0.00 0.00 0.00 90 1017.5
20260902233516 83 0.0 0.0 0.00 0.00 0.00 89 1017.7
20260902232536 83 0.0 1.7 0.00 0.00 0.00 89 1017.5
20260902231516 83 0.0 0.0 0.00 0.00 0.00 89 1018.1
20260902230516 83 0.0 0.0 0.00 0.00 0.00 88 1018.3
20260902225517 83 0.0 0.0 0.00 0.00 0.00 87 1018.1
20260902224516 83 0.0 2.6 0.00 0.00 0.00 88 1017.7
20260902223516 83 90 0.9 3.5 0.00 0.00 0.00 86 1017.8
20260902222516 84 113 0.9 3.5 0.00 0.00 0.00 85 1018.5
20260902221516 84 0.0 0.9 0.00 0.00 0.00 85 1018.6
20260902220519 85 0.0 1.7 0.00 0.00 0.00 82 1018.1
20260902215516 86 0.0 1.7 0.00 0.00 0.00 81 1018.1
20260902214518 87 0.0 0.9 0.00 0.00 0.00 80 1018.1
20260902213516 88 68 0.9 4.3 0.00 0.00 0.00 77 1018.2
20260902212516 89 338 0.9 3.5 0.00 0.00 0.00 75 1018.0
20260902211516 89 338 0.9 2.6 0.00 0.00 0.00 75 1018.4
20260902210516 90 315 0.9 2.6 0.00 0.00 0.00 75 1017.9
20260902205516 90 293 1.7 3.5 0.00 0.00 0.00 76 1017.8
20260902204516 91 338 1.7 5.2 0.00 0.00 0.00 75 1018.2
20260902203516 93 0 0.9 2.6 0.00 0.00 0.00 72 1018.2
20260902202516 93 0.0 0.9 0.00 0.00 0.00 72 1017.9
20260902201516 93 338 0.9 1.7 0.00 0.00 0.00 71 1018.1
20260902200536 93 45 0.9 2.6 0.00 0.00 0.00 70 1018.2
20260902195516 94 45 0.9 1.7 0.00 0.00 0.00 70 1018.3
20260902194516 95 338 0.9 0.9 0.00 0.00 0.00 69 1017.9
20260902193516 95 0.0 1.7 0.00 0.00 0.00 66 1017.7
20260902192516 94 0.0 1.7 0.00 0.00 0.00 68 1017.8
20260902191516 94 0.0 0.9 0.00 0.00 0.00 68 1017.8
20260902190516 95 0.0 1.7 0.00 0.00 0.00 67 1017.9
20260902185515 94 0.0 2.6 0.00 0.00 0.00 67 1018.0
20260902184516 94 45 0.9 1.7 0.00 0.00 0.00 68 1018.2
20260902183516 95 0.0 0.9 0.00 0.00 0.00 68 1018.4
20260902182515 95 0.0 1.7 0.00 0.00 0.00 67 1018.4
20260902181515 95 0.0 1.7 0.00 0.00 0.00 67 1018.5
20260902180516 95 0.0 1.7 0.00 0.00 0.00 68 1018.6
20260902175516 94 338 0.9 2.6 0.00 0.00 0.00 67 1018.6
20260902174516 95 45 0.9 2.6 0.00 0.00 0.00 67 1018.7
20260902173516 94 338 0.9 1.7 0.00 0.00 0.00 67 1018.6
20260902172536 94 45 0.9 1.7 0.00 0.00 0.00 68 1018.5
20260902171516 94 45 0.9 2.6 0.00 0.00 0.00 67 1018.6
20260902170515 95 45 0.9 1.7 0.00 0.00 0.00 66 1018.6
20260902165515 94 45 0.9 1.7 0.00 0.00 0.00 67 1018.6
20260902164516 94 0.0 1.7 0.00 0.00 0.00 66 1018.7
20260902163516 94 45 0.9 3.5 0.00 0.00 0.00 65 1018.7
20260902162515 94 0.0 0.9 0.00 0.00 0.00 67 1018.7
20260902161536 94 45 0.9 1.7 0.00 0.00 0.00 68 1018.7
20260902160515 94 0.0 0.9 0.00 0.00 0.00 69 1019.0
20260902155515 93 0.0 1.7 0.00 0.00 0.00 70 1019.1
20260902154515 92 45 0.9 2.6 0.00 0.00 0.00 72 1019.1
20260902153515 92 0.0 1.7 0.00 0.00 0.00 70 1019.0
20260902152515 92 0.0 0.9 0.00 0.00 0.00 71 1019.0
20260902151515 91 0.0 0.9 0.00 0.00 0.00 72 1019.1
20260902150515 90 0.0 1.7 0.00 0.00 0.00 72 1019.2
20260902145515 90 0.0 0.9 0.00 0.00 0.00 74 1019.2
20260902144516 89 45 0.9 1.7 0.00 0.00 0.00 75 1019.3
20260902143519 90 0.0 0.0 0.00 0.00 0.00 76 1019.4
20260902142515 89 0.0 0.0 0.00 0.00 0.00 78 1019.3
20260902141515 89 0.0 0.0 0.00 0.00 0.00 75 1019.1
20260902140555 89 0.0 0.0 0.00 0.00 0.00 78 1019.1
20260902135516 88 0.0 0.0 0.00 0.00 0.00 79 1019.0
20260902134535 86 0.0 0.0 0.00 0.00 0.00 81 1018.9
20260902133535 85 0.0 0.0 0.00 0.00 0.00 84 1018.9
20260902132515 84 0.0 0.0 0.00 0.00 0.00 86 1018.8
20260902131515 82 0.0 0.9 0.00 0.00 0.00 88 1018.8
20260902130515 79 0.0 0.0 0.00 0.00 0.00 97 1018.8
20260902125515 76 0.0 0.0 0.00 0.00 0.00 100 1018.7
20260902124517 75 0.0 0.0 0.00 0.00 0.00 100 1018.6
20260902123515 74 0.0 0.0 0.00 0.00 0.00 100 1018.6
20260902122515 74 0.0 0.0 0.00 0.00 0.00 100 1018.5
20260902121515 73 0.0 0.0 0.00 0.00 0.00 100 1018.6
20260902120535 73 0.0 0.0 0.00 0.00 0.00 100 1018.5
20260902115517 73 0.0 0.0 0.00 0.00 0.00 100 1018.5
20260902114515 73 0.0 0.0 0.00 0.00 0.00 100 1018.5
20260902113515 73 0.0 0.0 0.00 0.00 0.00 100 1018.5
20260902112555 73 0.0 0.0 0.00 0.00 0.00 100 1018.5
20260902111515 73 0.0 0.0 0.00 0.00 0.00 100 1018.5
20260902110535 73 0.0 0.0 0.00 0.00 0.00 100 1018.5
20260902105515 73 0.0 0.0 0.00 0.00 0.00 100 1018.5
20260902104535 73 0.0 0.0 0.00 0.00 0.00 100 1018.3
20260902103515 74 0.0 0.0 0.00 0.00 0.00 100 1018.3
20260902102536 74 0.0 0.0 0.00 0.00 0.00 100 1018.4
20260902101515 74 0.0 0.0 0.00 0.00 0.00 100 1018.2
20260902100555 74 0.0 0.0 0.00 0.00 0.00 100 1018.1
20260902095535 73 0.0 0.0 0.00 0.00 0.00 100 1017.9
20260902094515 73 0.0 0.0 0.00 0.00 0.00 100 1018.0
20260902093517 73 0.0 0.0 0.00 0.00 0.00 100 1018.0
20260902092517 73 0.0 0.0 0.00 0.00 0.00 100 1017.9
20260902091517 73 0.0 0.0 0.00 0.00 0.00 100 1017.9
20260902090517 73 0.0 0.0 0.00 0.00 0.00 100 1017.9
20260902085517 73 0.0 0.0 0.00 0.00 0.00 100 1017.9
20260902084517 72 0.0 0.0 0.00 0.00 0.00 100 1017.8
20260902083518 72 0.0 0.0 0.00 0.00 0.00 100 1017.8
20260902082517 72 0.0 0.0 0.00 0.00 0.00 100 1017.9
20260902081537 72 0.0 0.0 0.00 0.00 0.00 100 1017.7
20260902080517 72 0.0 0.0 0.00 0.00 0.00 100 1017.7
20260902075517 72 0.0 0.0 0.00 0.00 0.00 99 1017.7
20260902074537 72 0.0 0.0 0.00 0.00 0.00 100 1017.7
20260902073517 73 0.0 0.0 0.00 0.00 0.00 100 1017.7
20260902072517 72 0.0 0.0 0.00 0.00 0.00 99 1017.8
20260902071558 72 0.0 0.0 0.00 0.00 0.00 99 1017.7
20260902070517 72 0.0 0.0 0.00 0.00 0.00 99 1017.7
20260902065517 72 0.0 0.0 0.00 0.00 0.00 99 1017.7
20260902064517 73 0.0 0.0 0.00 0.00 0.00 99 1017.6
20260902063516 73 0.0 0.0 0.00 0.00 0.00 99 1017.5
20260902062517 73 0.0 0.0 0.00 0.00 0.00 99 1017.6
20260902061518 73 0.0 0.0 0.00 0.00 0.00 99 1017.6
20260902060517 73 0.0 0.0 0.00 0.00 0.00 99 1017.7
20260902055516 73 0.0 0.0 0.00 0.00 0.00 99 1017.4
20260902054517 73 0.0 0.0 0.00 0.00 0.00 98 1017.5
20260902053537 73 0.0 0.0 0.00 0.00 0.00 99 1017.5
20260902052537 73 0.0 0.0 0.00 0.00 0.00 98 1017.5
20260902051516 74 0.0 0.0 0.00 0.00 0.00 98 1017.6
20260902050522 74 0.0 0.0 0.00 0.00 0.00 98 1017.7
20260902045517 74 0.0 0.0 0.00 0.00 0.00 98 1017.6
20260902044536 74 0.0 0.0 0.00 0.00 0.00 98 1017.5
20260902043517 74 0.0 0.0 0.00 0.00 0.00 98 1017.3
20260902042517 74 0.0 0.0 0.00 0.00 0.00 98 1017.4
20260902041537 75 0.0 0.0 0.00 0.00 0.00 98 1017.3
20260902040516 75 0.0 0.0 0.00 0.00 0.00 98 1017.2
20260902035517 75 0.0 0.0 0.00 0.00 0.00 98 1017.2
20260902034537 75 0.0 0.0 0.00 0.00 0.00 98 1017.0
20260902033516 75 0.0 0.0 0.00 0.00 0.00 97 1016.8
20260902032517 75 0.0 0.0 0.00 0.00 0.00 97 1016.7
20260902031516 75 0.0 0.0 0.00 0.00 0.00 97 1016.7
20260902030516 76 0.0 0.0 0.00 0.00 0.00 97 1016.8
20260902025517 76 0.0 0.0 0.00 0.00 0.00 97 1016.8
20260902024517 76 0.0 0.0 0.00 0.00 0.00 97 1016.8
20260902023516 76 0.0 0.0 0.00 0.00 0.00 96 1016.7
20260902022517 76 0.0 0.0 0.00 0.00 0.00 96 1016.9
20260902021516 76 0.0 0.0 0.00 0.00 0.00 96 1016.9
20260902020516 76 0.0 0.0 0.00 0.00 0.00 95 1016.8
20260902015516 77 0.0 0.0 0.00 0.00 0.00 95 1016.7
20260902014536 77 0.0 0.0 0.00 0.00 0.00 95 1016.5
20260902013517 77 0.0 0.0 0.00 0.00 0.00 95 1016.3
20260902012517 77 0.0 0.0 0.00 0.00 0.00 95 1016.1
20260902011516 78 0.0 0.0 0.00 0.00 0.00 94 1016.0
20260902010516 78 0.0 0.0 0.00 0.00 0.00 94 1015.9
20260902005516 79 0.0 0.0 0.00 0.00 0.00 93 1015.9
20260902004536 79 0.0 0.0 0.00 0.00 0.00 92 1015.8
20260902003517 80 0.0 0.0 0.00 0.00 0.00 91 1015.6
20260902002516 80 0.0 0.0 0.00 0.00 0.00 90 1015.6
20260902001516 80 0.0 0.0 0.00 0.00 0.00 89 1015.6
20260902000516 81 0.0 0.0 0.00 0.00 0.00 89 1015.6
20260901235517 82 0.0 0.0 0.00 0.00 0.00 87 1015.6